Location: Cold Norton
(51.6667°N, 0.6667°E)
Time: 05:34:34
(UTC+00:00)

Cosmos 2263 Rocket - Pass Details

Date: 18 November 2025
Orbit: 822 x 847 km, 71.0° (Epoch: 10 December)

Event Time Altitude Azimuth Distance (km) Brightness Sun altitude
Rises 17:55:22 0° 303° (WNW) 3,375 6.1 -17.0°
Reaches altitude 10° 18:00:29 10° 343° (NNW) 2,449 4.7 -17.8°
Maximum altitude 18:01:29 10° 354° (N) 2,420 4.6 -18.0°
Drops below altitude 10° 18:02:29 10° 4° (N) 2,453 4.5 -18.1°
Enters shadow 18:04:16 - 21° (NNE) 2,655 4.5 -18.4°
